Preview of NWS' New Version of Forecast
This preview is not operational and should not be used for support decisions.

Regional Weather Roundup (RWR)

Issued by National Weather Service (NWS)

                            
000
ASUS42 KTBW 221317
RWRFL 
FLORIDA REGIONAL WEATHER ROUNDUP
NATIONAL WEATHER SERVICE TAMPA BAY RUSKIN FL
900 AM EDT THU AUG 22 2019

NOTE: "FAIR" INDICATES FEW OR NO CLOUDS BELOW 12,000 FEET WITH NO
SIGNIFICANT WEATHER AND/OR OBSTRUCTIONS TO VISIBILITY.

FLZ001>010-012>015-112-114-115-221400-
PANHANDLE FLORIDA
  
CITY           SKY/WX    TMP DP  RH WIND       PRES   REMARKS
PENSACOLA      CLOUDY    78  78 100 E3        30.05R                  
PENSACOLA NAS  PTSUNNY   79  78  97 N3        30.04S                  
MILTON NAS     PTSUNNY   76  75  97 CALM      30.06                   
CRESTVIEW      PTSUNNY   77  73  87 E5        30.08S                  
DUKE FIELD     FAIR      78  78  98 CALM      30.06S                  
VALPARAISO     DRIZZLE   79  77  94 N3        30.05S                  
MARY ESTHER    PTSUNNY   76  73  88 CALM      30.04                   
TRI COUNTY     FAIR      75  74  96 CALM      30.09S                  
PANAMA CITY    FAIR      79  75  87 E5        30.06S                  
TYNDALL AFB    FAIR      79  77  92 NE5       30.06R                  
APALACHICOLA   FAIR      80  77  90 NE6       30.07R                  

STATION/POSITION SKY/WX   TEMP    WIND        PRES    WAVE   SWELL
                          AIR SEA DIR/SP/G            HT/PER HT/PER
                          (F)     (DEG/KT/KT) (MB)    (FT/S) (FT/S)
30.1N   87.6W              83 85  340/  8/ 16 1017.3R   2/ 5   2/ 5
29.2N   88.2W              84 85  280/  2/  2 1017.4R   2/ 5   2/ 5
28.8N   86.0W                 85  160/  4/  6 1017.6R   2/ 5   2/ 5
PANAMA CITY BEAC           78 86   50/  6/  9 1018.3
TOWER C                    82      CALM  /  1 1018.5R
28.5N   84.5W              84     130/  6/  6 1018.6R   1/ 5   2/ 5

$$
FLZ011-016>038-118-127-128-134-139-239-221400-
NORTH FLORIDA
  
CITY           SKY/WX    TMP DP  RH WIND       PRES   REMARKS
MARIANNA       FAIR      78  77  96 CALM      30.08R                  
TALLAHASSEE    FAIR      80  77  90 CALM      30.08R                  
PERRY          FAIR      80  78  92 SE5       30.10R                  
LIVE OAK       SUNNY     79  79 100 CALM      30.11R                  
CROSS CITY     FAIR      80  76  87 SE6       30.10R                  
LAKE CITY      FAIR      79  73  83 CALM      30.12R                  
GAINESVILLE    FAIR      78  75  90 CALM      30.13R                  
WILLISTON      FAIR      80  77  91 S5        30.10R                  
MAYPORT NAS    FAIR      83  75  77 W5        30.11R                  
JACKSONVILLE   FAIR      81  76  84 CALM      30.10R                  
JAX CECIL      SUNNY     82  77  83 CALM      30.11R                  
FERNANDINA BEA FAIR      81  78  89 MISG      30.11R                  
ST AUGUSTINE   FAIR      82  77  84 W5        30.12R                  
PALM COAST     SUNNY     81  73  78 CALM      30.10R                  

STATION/POSITION SKY/WX   TEMP    WIND        PRES    WAVE   SWELL
                          AIR SEA DIR/SP/G            HT/PER HT/PER
                          (F)     (DEG/KT/KT) (MB)    (FT/S) (FT/S)
SHELL POINT      NOT AVBL
KEATON BEACH               80      90/  5/  6 1018.9R
CEDAR KEY                  81     150/  7/  8 1018.4R
FERNANDINA                 84 85              1020.3R
30.7N   81.3W                 83                N/A     2/11
MAYPORT                    81 84  240/  3/  5 1019.8R
31.4N   80.9W              82 82  270/  8/ 10 1019.3R   2/10   2/10
ST AUGUSTINE               86 81  220/  2/  3 1019.8R

$$
FLZ040-043>046-052-053-057-058-063-144-221400-
INTERIOR CENTRAL FLORIDA
  
CITY           SKY/WX    TMP DP  RH WIND       PRES   REMARKS
OCALA          FAIR      82  76  81 CALM      30.11R                  
LEESBURG       FAIR      83  76  79 CALM      30.10R                  
SANFORD        FAIR      83  76  79 CALM      30.08R                  
ORLANDO EXEC   FAIR      83  75  77 SE6       30.08R                  
ORLANDO INTL   FAIR      82  75  79 E3        30.08R                  
KISSIMMEE      FAIR      83  76  79 CALM      30.09R                  
WINTER HAVEN   FAIR      83  75  77 SE3       30.09R                  
LAKELAND       SUNNY     81  75  83 SE5       30.09R                  
BARTOW         SUNNY     81  77  89 CALM      30.07R                  
SEBRING        FAIR      81  77  90 NE5       30.08R                  
OKEECHOBEE     FAIR      81  73  78 CALM      30.06R                  

$$
FLZ041-047-054-059-064-141-147-221400-
EAST CENTRAL FLORIDA
  
CITY           SKY/WX    TMP DP  RH WIND       PRES   REMARKS
ORMOND BEACH   SUNNY     81  81 100 CALM      30.09R                  
DAYTONA BEACH  FAIR      83  76  79 CALM      30.09R                  
DELAND         FAIR      81  77  89 CALM      30.09R                  
NEW SMYRNA BEA MOSUNNY   84  75  74 CALM      30.10R                  
JFK SPACE CTR  PTSUNNY   81  57  43 CALM      30.07R                  
CAPE CANAVERAL FAIR      85  77  77 CALM      30.07R                  
PATRICK AFB    FAIR      85  77  78 SE5       30.07R HX  95           
MELBOURNE      FAIR      85  76  74 NW3       30.07R                  
VERO BEACH     PTSUNNY   83  75  77 N3        30.06R                  
FT PIERCE      FAIR      84  74  71 SE3       30.05S                  
STUART         MOSUNNY   84  72  65 SE9       30.06R                  

STATION/POSITION SKY/WX   TEMP    WIND        PRES    WAVE   SWELL
                          AIR SEA DIR/SP/G            HT/PER HT/PER
                          (F)     (DEG/KT/KT) (MB)    (FT/S) (FT/S)
28.5N   80.2W              83 83  140/  6/  8 1018.4R   2/10   2/10
28.9N   78.5W              84 86  130/  8/ 10 1019.1R   2/ 7   2/ 7
TRIDENT PIER               83 83  130/  3/  5 1019.7R
28.4N   80.5W                 82                N/A     2/ 4
27.5N   80.2W                 83                N/A     2/ 4

$$
FLZ050-056-061-142-242-148-248-149-249-151-251-155-255-
160-260-221400-
WEST CENTRAL FLORIDA
  
CITY           SKY/WX    TMP DP  RH WIND       PRES   REMARKS
CRYSTAL RIVER  FAIR      81  77  89 CALM      30.09S                  
INVERNESS      FAIR      79  79 100 CALM      30.10R                  
BROOKSVILLE    FAIR      80  76  87 CALM      30.09R                  
CLEARWATER AIR FAIR      82  75  78 SE6       30.07R                  
ST PETE CLEARW FAIR      83  75  77 SE5       30.07R                  
TAMPA INTL     FAIR      82  75  79 SE5       30.08R                  
PLANT CITY     FAIR      82  77  83 SE3       30.10R                  
MACDILL AFB    FAIR      82  76  79 SE5       30.07R                  
PETER O KNIGHT CLOUDY    82  81  94 CALM      30.08R HX  95           
ST PETERSBURG  FAIR      82  75  79 E6        30.05R                  
SARASOTA       FAIR      81  75  82 SE6       30.05R                  
VENICE         FAIR      82  75  78 E8        30.06R                  

STATION/POSITION SKY/WX   TEMP    WIND        PRES    WAVE   SWELL
                          AIR SEA DIR/SP/G            HT/PER HT/PER
                          (F)     (DEG/KT/KT) (MB)    (FT/S) (FT/S)
27.3N   84.2W                 85                N/A     3/ 7
CLEARWATER BEACH           82 87  110/  5/  8 1018.3R
MIDDLE TAMPA BAY           80     120/  8/ 11 1018.1R
VENICE                     81 86   80/  5/  6 1017.8R

$$
FLZ066-069-070-075>078-162-262-165-265-221400-
SOUTHWEST FLORIDA AND KEYS
  
CITY           SKY/WX    TMP DP  RH WIND       PRES   REMARKS
PUNTA GORDA    FAIR      80  77  90 E6        30.07R                  
FT MYERS       FAIR      81  74  79 NE3       30.04S                  
SOUTHWEST INTL FAIR      82  74  76 NE6       30.05R                  
NAPLES         FAIR      84  76  76 N3        30.03S                  
MARCO ISLAND   FAIR     N/A N/A N/A N6          N/A                   
IMMOKALEE      FAIR      82  77  83 NE6       30.03S                  
MARATHON       FAIR      84  74  71 VRB3      30.01S                  
KEY WEST NAS   FAIR      86  74  67 NW5       30.02S                  
KEY WEST INTL  FAIR      85  75  72 NW5       30.03R                  

STATION/POSITION SKY/WX   TEMP    WIND        PRES    WAVE   SWELL
                          AIR SEA DIR/SP/G            HT/PER HT/PER
                          (F)     (DEG/KT/KT) (MB)    (FT/S) (FT/S)
NAPLES                     81 87              1017.1S
26.0N   85.6W              84 85   CALM  /  2 1017.3R   2/ 7   2/ 7
DRY TORTUGAS               85      60/  8/  9 1017.0R
SAND KEY                   83      10/  6/  7 1015.6R
SOMBRERO KEY               82      20/  6/  8 1016.8R
LONG KEY                   82                 1015.5R

$$
FLZ067-068-071>074-168-172>174-221400-
SOUTHEAST FLORIDA 
  
CITY           SKY/WX    TMP DP  RH WIND       PRES   REMARKS
W PALM BEACH   FAIR      83  74  74 E8        30.04R                  
FT LAUDER-EXEC PTSUNNY   81  76  84 SE7       30.03R                  
FT LAUDERDALE  PTSUNNY   80  76  87 CALM      30.02S                  
POMPANO BEACH  MOSUNNY   86  73  66 E8        30.03                   
PEMBROKE PINES CLOUDY    80  75  84 NE8       30.05R                  
OPA LOCKA      FAIR      82  76  81 N5        30.03R                  
MIAMI          PTSUNNY   82  74  76 N3        30.02S                  
WEST KENDALL   FAIR      84  76  76 N5        30.02S                  
HOMESTEAD      FAIR      82  76  82 NW6       30.01S                  

STATION/POSITION SKY/WX   TEMP    WIND        PRES    WAVE   SWELL
                          AIR SEA DIR/SP/G            HT/PER HT/PER
                          (F)     (DEG/KT/KT) (MB)    (FT/S) (FT/S)
VIRGINIA KEY               81 88   CALM  /  2 1015.9
LAKE WORTH                 81 85   80/  6/  7 1018.1S
FOWEY ROCKS                83 86   90/  3/  3 1016.9R
SETTLEMENT POINT           83      90/ 14/ 15 1017.3R

$$